This demonstration page uses our WeatherBlox Daily Observations layout. Learn more.

38.89511, -77.03637

Hourly Observations for January 5, 2018

Temp ( °F °C ) Dew Point ( °F °C ) Humidity (%) Winds ( mph kmh ) Pressure ( in mb ) Visibility ( mi km ) Precip ( " mm )
12:52 am 00:52 Mostly Clear 15 -9.4 -4 -20 42 42 WNW 18 30 29.93 1014 10 16.0934 0 0
1:52 am 01:52 Clear 14 -10 -5 -20.6 42 42 WNW 17 28 29.95 1014 10 16.0934 0 0
2:52 am 02:52 Clear 14 -10 -4 -20 44 44 WNW 18 30 29.98 1015 10 16.0934 0 0
3:52 am 03:52 Clear 14 -10 -5 -20.6 42 42 WNW 22 35 29.99 1016 10 16.0934 0 0
4:52 am 04:52 Clear 14 -10 -4 -20 44 44 W 17 28 30 1016 10 16.0934 0 0
5:52 am 05:52 Mostly Clear 13 -10.6 -6 -21.1 42 42 WNW 18 30 30.03 1017 10 16.0934 0 0
6:52 am 06:52 Mostly Clear 13 -10.6 -5 -20.6 44 44 WNW 16 26 30.04 1017 10 16.0934 0 0
7:52 am 07:52 Mostly Sunny 13 -10.6 -5 -20.6 44 44 WNW 6 9 30.08 1019 10 16.0934 0 0
8:52 am 08:52 Mostly Sunny 15 -9.4 -5 -20.6 40 40 WNW 17 28 30.1 1019 10 16.0934 0 0
9:52 am 09:52 Mostly Sunny 16 -8.9 -5 -20.6 38 38 WNW 20 31 30.14 1021 10 16.0934 0 0
10:52 am 10:52 Mostly Sunny 17 -8.3 -5 -20.6 37 37 NW 23 37 30.14 1021 10 16.0934 0 0
11:52 am 11:52 Mostly Sunny 19 -7.2 -4 -20 36 36 NW 21 33 30.13 1020 10 16.0934 0 0
12:52 pm 12:52 Mostly Sunny 20 -6.7 -3 -19.4 36 36 WNW 15 24 30.12 1020 10 16.0934 0 0
1:52 pm 13:52 Mostly Sunny 21 -6.1 -5 -20.6 31 31 WNW 17 28 30.12 1020 10 16.0934 0 0
2:52 pm 14:52 Mostly Sunny 20 -6.7 -6 -21.1 31 31 WNW 20 31 30.14 1021 10 16.0934 0 0
3:52 pm 15:52 Mostly Sunny 20 -6.7 -7 -21.7 29 29 WNW 22 35 30.17 1022 10 16.0934 0 0
4:52 pm 16:52 Mostly Sunny 18 -7.8 -7 -21.7 32 32 WNW 15 24 30.21 1023 10 16.0934 0 0
5:52 pm 17:52 Mostly Clear 17 -8.3 -7 -21.7 33 33 W 12 19 30.23 1024 10 16.0934 0 0
6:52 pm 18:52 Mostly Clear 17 -8.3 -7 -21.7 33 33 NW 13 20 30.25 1024 10 16.0934 0 0
7:52 pm 19:52 Clear 16 -8.9 -7 -21.7 35 35 WNW 8 13 30.26 1025 10 16.0934 0 0
8:40 pm 20:40 Clear 16 -8.9 -6 -21.1 37 37 W 13 20 30.27 1025 10 16.0934 0 0
8:52 pm 20:52 Clear 16 -8.9 -6 -21.1 37 37 WNW 10 17 30.28 1025 10 16.0934 0 0
9:52 pm 21:52 Clear 16 -8.9 -5 -20.6 38 38 WNW 13 20 30.27 1025 10 16.0934 0 0
10:52 pm 22:52 Clear 15 -9.4 -6 -21.1 38 38 WNW 9 15 30.29 1026 10 16.0934 0 0
11:52 pm 23:52 Clear 15 -9.4 -6 -21.1 38 38 WNW 10 17 30.3 1026 10 16.0934 0 0

Powered by AerisWeather